Lid_Strength_Index
2 2 2 2 2 2 1 1 2 2 2 2 2 3 3 3 5 9 12 8 7 4 6 10 11 11 11 13 13 14 17 19 18 18 17 15 15 14 13 14 13 13 13 13 12
2 2 2 2 2 2 2 2 2 2 2 2 3 3 3 4 9 10 7 5 5 5 11 12 13 12 14 14 14 16 18 18 17 17 17 16 16 15 15 15 14 14 13 13 12
3 3 2 2 2 2 2 2 2 3 3 3 3 3 3 6 11 11 6 5 5 6 10 11 11 12 14 14 15 16 18 17 15 15 15 16 16 15 16 16 14 14 14 14 14
3 3 2 2 2 2 2 2 3 3 3 4 3 4 4 9 15 11 6 6 5 9 10 11 13 14 15 16 14 17 16 16 14 14 15 16 16 16 16 14 14 14 13 14 14
2 2 2 2 2 2 2 2 3 4 4 4 4 4 8 14 13 10 7 7 9 10 12 12 13 14 16 15 15 16 16 15 15 15 16 15 16 16 16 15 14 14 14 14 14
2 2 2 2 2 2 2 2 2 4 4 4 4 5 12 16 11 10 10 10 10 11 12 12 13 13 15 15 16 15 15 16 15 15 16 16 17 17 14 14 16 15 15 14 14
1 2 2 2 2 2 2 2 3 4 4 4 4 8 13 14 12 10 10 11 10 10 12 11 11 13 14 16 14 15 17 16 16 16 16 16 18 18 15 15 15 16 15 15 14
3 3 3 3 3 3 2 2 4 5 4 4 5 11 15 11 12 11 10 11 10 10 10 10 11 12 14 13 15 16 16 18 16 16 16 16 19 16 15 16 16 16 16 16 15
4 4 3 3 3 3 3 4 5 5 4 5 10 13 15 9 13 11 10 11 11 10 10 9 11 14 14 17 18 17 19 19 17 15 16 17 18 15 15 16 16 16 16 17 17
4 4 4 3 3 3 3 5 5 6 8 8 11 14 13 14 12 11 11 11 12 12 12 13 15 17 17 18 21 19 19 19 19 16 17 18 18 16 14 17 16 16 16 17 17
5 5 4 4 3 3 9 11 11 12 12 14 14 15 14 13 11 12 11 12 12 14 17 15 17 19 18 17 17 18 18 19 18 16 17 18 18 16 15 16 17 17 18 18 18
5 5 5 4 3 4 11 13 13 13 13 12 13 14 13 13 15 13 11 15 15 17 16 17 19 16 15 16 17 17 18 19 17 16 17 18 18 16 16 16 17 18 18 18 18
4 4 4 4 3 9 11 12 10 11 14 13 14 15 14 14 16 15 13 14 16 17 17 18 16 14 15 16 16 17 18 18 18 17 18 19 20 19 16 17 17 18 18 18 18
4 4 4 4 7 11 12 10 9 10 17 16 16 15 14 14 16 12 12 14 15 17 17 17 15 15 16 16 16 19 16 16 17 20 22 19 23 19 18 18 18 17 18 18 18
5 4 4 4 8 10 10 9 9 11 26 16 16 12 14 16 15 15 12 14 16 16 16 16 16 16 17 15 15 18 16 17 18 21 24 20 24 20 19 19 18 18 16 16 17
5 4 4 6 9 11 9 10 10 19 25 17 16 16 15 15 15 14 14 12 13 15 15 15 14 15 15 15 15 15 17 17 20 21 27 23 22 20 20 21 19 17 16 17 17
5 4 6 7 9 9 9 11 19 24 16 18 17 15 16 16 15 14 14 15 17 19 18 15 16 15 14 16 15 16 17 21 25 28 24 22 23 19 20 20 18 18 17 19 18
5 4 6 8 7 8 10 14 26 24 20 14 15 15 16 15 15 15 16 16 13 16 19 18 21 17 15 18 20 18 18 20 24 26 26 20 25 17 19 19 21 21 21 19 18
3 6 7 8 7 7 12 21 22 20 14 15 15 17 17 14 16 16 16 16 15 15 20 23 20 16 16 16 16 18 20 18 22 25 24 21 19 18 17 18 19 20 17 18 18
5 7 8 7 7 8 13 18 21 14 12 12 19 17 21 18 16 16 17 15 15 14 14 18 22 15 16 16 16 17 17 21 21 24 25 21 22 19 20 20 19 20 18 19 19
5 10 7 6 6 10 18 19 16 11 10 13 18 15 16 19 16 15 16 14 14 14 14 16 19 19 17 19 19 19 19 19 19 22 23 24 20 20 21 23 21 20 18 20 20
5 15 8 5 10 12 18 16 11 13 12 12 12 13 18 16 15 16 16 14 11 13 17 15 18 24 21 18 16 17 18 18 20 22 25 24 21 22 24 27 26 20 18 19 20
8 10 6 6 14 17 12 12 12 13 13 13 13 13 15 17 16 15 13 12 11 13 15 15 17 24 22 19 18 19 19 20 21 23 24 24 21 25 29 23 21 21 19 20 20
7 13 10 8 10 14 15 15 13 10 11 11 11 12 14 15 14 16 14 13 12 13 10 12 17 22 22 19 19 21 20 20 20 25 26 25 23 18 18 18 17 17 20 23 24
8 17 17 16 12 12 13 14 15 16 12 10 12 12 15 17 15 16 14 13 12 11 12 14 22 23 21 18 17 19 18 20 21 22 19 25 28 18 17 17 19 25 24 22 22
9 14 12 20 14 13 12 13 14 14 13 13 13 13 14 16 16 17 15 14 15 14 14 15 22 22 22 21 21 22 19 19 18 19 20 27 20 17 22 28 25 21 21 22 23
7 8 11 15 16 17 15 14 13 13 12 11 12 14 14 13 13 12 13 13 14 15 15 17 20 23 26 23 21 23 24 25 26 28 24 24 20 26 19 18 22 21 24 22 22